{"data":{"norad_id":53265,"intl_designator":"2022-086Z","name":"STARLINK-4097","alt_names":[],"object_type":"PAYLOAD","status":"ACTIVE","operator":null,"country":"US","launch_date":"2022-07-24","launch_site_code":"AFETR","launch_vehicle":null,"mission":null,"orbit_class":"UNKNOWN","rcs_meters":null,"size_class":null,"mass_kg":null,"dimensions":null,"purposes":["comms"],"wikipedia_slug":null,"has_3d_model":false,"image_url":null,"decayed_at":null,"tle_current":{"epoch":"2026-09-19T22:53:48.199776Z","epoch_age_seconds":122541,"freshness":"FRESH","line1":"1 53265U 22086Z   26262.95403009  .00000236  00000+0  17680-4 0  9993","line2":"2 53265  53.1614  28.9019 0001141  78.8989 281.2142 15.35397780230573","mean_motion":15.3539778,"eccentricity":0.0001141,"inclination_deg":53.1614,"raan_deg":28.9019,"arg_perigee_deg":78.8989,"mean_anomaly_deg":281.2142,"bstar":1.768e-5,"rev_number":23057,"period_min":93.786771008618,"perigee_km":458.95903221772,"apogee_km":460.5194355743,"semimajor_km":6837.876233896,"source":"CELESTRAK","updated_at":"2026-09-20T09:00:40.216876Z"}}}